Time,TemperatureF,DewpointF,PressureIn,WindDirection,WindDirectionDegrees,WindSpeedMPH,WindSpeedGustMPH,Humidity,HourlyPrecipIn,Conditions,Clouds,dailyrainin,SoftwareType,DateUTC
2013-03-02 00:00:00,16.9,7.5,30.19,NNE,14,7.0,7.0,66,0.00,,---,0.00,VWS V14.01,2013-03-02 05:00:00,
2013-03-02 00:05:00,17.2,8.1,30.19,NNE,12,6.0,11.0,67,0.00,,---,0.00,VWS V14.01,2013-03-02 05:05:00,
2013-03-02 00:10:00,17.2,8.1,30.19,NNE,32,6.0,9.0,67,0.00,,---,0.00,VWS V14.01,2013-03-02 05:10:00,
2013-03-02 00:15:00,17.4,8.0,30.19,NNE,23,6.0,12.0,66,0.00,,---,0.00,VWS V14.01,2013-03-02 05:15:00,
2013-03-02 00:20:00,17.3,7.9,30.19,North,5,7.0,8.0,66,0.00,,---,0.00,VWS V14.01,2013-03-02 05:20:00,
2013-03-02 00:25:00,17.4,8.0,30.19,North,3,4.0,10.0,66,0.00,,---,0.00,VWS V14.01,2013-03-02 05:25:00,
2013-03-02 00:30:00,17.3,7.9,30.19,NNE,16,5.0,7.0,66,0.00,,---,0.00,VWS V14.01,2013-03-02 05:30:00,
2013-03-02 00:36:00,17.2,7.5,30.19,NNE,13,7.0,8.0,65,0.00,,---,0.00,VWS V14.01,2013-03-02 05:36:00,
2013-03-02 00:40:00,16.9,7.2,30.19,North,4,5.0,9.0,65,0.00,,---,0.00,VWS V14.01,2013-03-02 05:40:00,
2013-03-02 00:41:00,16.9,7.5,30.19,NE,36,4.0,7.0,66,0.00,,---,0.00,VWS V14.01,2013-03-02 05:41:00,
2013-03-02 00:46:00,16.7,7.3,30.19,NNE,20,9.0,9.0,66,0.00,,---,0.00,VWS V14.01,2013-03-02 05:46:00,
2013-03-02 00:50:00,16.6,7.2,30.19,NE,35,6.0,10.0,66,0.00,,---,0.00,VWS V14.01,2013-03-02 05:50:00,
2013-03-02 00:51:00,16.5,7.1,30.19,North,6,4.0,10.0,66,0.00,,---,0.00,VWS V14.01,2013-03-02 05:51:00,
2013-03-02 00:56:00,16.6,7.2,30.19,NE,34,5.0,10.0,66,0.00,,---,0.00,VWS V14.01,2013-03-02 05:56:00,
2013-03-02 01:00:00,16.2,6.8,30.19,NNE,24,6.0,10.0,66,0.00,,---,0.00,VWS V14.01,2013-03-02 06:00:00,
2013-03-02 01:01:00,16.1,7.1,30.19,NNE,19,5.0,7.0,67,0.00,,---,0.00,VWS V14.01,2013-03-02 06:01:00,
2013-03-02 01:06:00,15.8,6.8,30.19,NNE,18,5.0,7.0,67,0.00,,---,0.00,VWS V14.01,2013-03-02 06:06:00,
2013-03-02 01:10:00,15.7,6.7,30.19,NNE,32,5.0,7.0,67,0.00,,---,0.00,VWS V14.01,2013-03-02 06:10:00,
2013-03-02 01:11:00,15.7,7.0,30.19,NNE,32,4.0,6.0,68,0.00,,---,0.00,VWS V14.01,2013-03-02 06:11:00,
2013-03-02 01:16:00,15.6,6.9,30.19,NE,35,5.0,7.0,68,0.00,,---,0.00,VWS V14.01,2013-03-02 06:16:00,
2013-03-02 01:20:00,15.7,7.0,30.19,NNE,15,2.0,7.0,68,0.00,,---,0.00,VWS V14.01,2013-03-02 06:20:00,
2013-03-02 01:21:00,15.6,6.9,30.19,NNE,15,2.0,4.0,68,0.00,,---,0.00,VWS V14.01,2013-03-02 06:21:00,
2013-03-02 01:26:00,15.2,6.6,30.19,NNE,15,0.0,4.0,68,0.00,,---,0.00,VWS V14.01,2013-03-02 06:26:00,
2013-03-02 01:30:00,14.9,6.3,30.19,NNE,15,1.0,4.0,68,0.00,,---,0.00,VWS V14.01,2013-03-02 06:30:00,
2013-03-02 01:31:00,14.8,6.2,30.19,NNE,15,1.0,1.0,68,0.00,,---,0.00,VWS V14.01,2013-03-02 06:31:00,
2013-03-02 01:36:00,14.5,5.9,30.19,NNE,15,0.0,2.0,68,0.00,,---,0.00,VWS V14.01,2013-03-02 06:36:00,
2013-03-02 01:40:00,14.1,5.5,30.20,NNE,15,1.0,3.0,68,0.00,,---,0.00,VWS V14.01,2013-03-02 06:40:00,
2013-03-02 01:41:00,14.0,5.7,30.19,NNE,15,1.0,3.0,69,0.00,,---,0.00,VWS V14.01,2013-03-02 06:41:00,
2013-03-02 01:46:00,13.8,5.8,30.19,NNE,15,3.0,5.0,70,0.00,,---,0.00,VWS V14.01,2013-03-02 06:46:00,
2013-03-02 01:50:00,14.0,6.0,30.19,NNE,15,4.0,5.0,70,0.00,,---,0.00,VWS V14.01,2013-03-02 06:50:00,
2013-03-02 01:51:00,14.1,6.4,30.19,NE,37,5.0,6.0,71,0.00,,---,0.00,VWS V14.01,2013-03-02 06:51:00,
2013-03-02 01:56:00,14.1,6.1,30.19,NNE,30,4.0,6.0,70,0.00,,---,0.00,VWS V14.01,2013-03-02 06:56:00,
2013-03-02 02:00:00,14.1,6.4,30.19,NNE,30,2.0,6.0,71,0.00,,---,0.00,VWS V14.01,2013-03-02 07:00:00,
2013-03-02 02:01:00,14.1,6.4,30.19,NNE,30,4.0,5.0,71,0.00,,---,0.00,VWS V14.01,2013-03-02 07:01:00,
2013-03-02 02:06:00,13.8,5.8,30.19,NNE,30,3.0,5.0,70,0.00,,---,0.00,VWS V14.01,2013-03-02 07:06:00,
2013-03-02 02:10:00,13.8,6.2,30.19,NNE,30,2.0,5.0,71,0.00,,---,0.00,VWS V14.01,2013-03-02 07:10:00,
2013-03-02 02:11:00,13.8,6.2,30.19,NNE,30,4.0,4.0,71,0.00,,---,0.00,VWS V14.01,2013-03-02 07:11:00,
2013-03-02 02:16:00,13.8,6.2,30.19,NNE,30,1.0,4.0,71,0.00,,---,0.00,VWS V14.01,2013-03-02 07:16:00,
2013-03-02 02:20:00,13.7,6.1,30.19,NNE,30,1.0,4.0,71,0.00,,---,0.00,VWS V14.01,2013-03-02 07:20:00,
2013-03-02 02:21:00,13.5,5.9,30.19,NNE,30,1.0,3.0,71,0.00,,---,0.00,VWS V14.01,2013-03-02 07:21:00,
2013-03-02 02:26:00,13.3,5.7,30.19,NNE,30,0.0,3.0,71,0.00,,---,0.00,VWS V14.01,2013-03-02 07:26:00,
2013-03-02 02:30:00,13.0,5.4,30.19,NNE,30,0.0,3.0,71,0.00,,---,0.00,VWS V14.01,2013-03-02 07:30:00,
2013-03-02 02:31:00,12.8,5.2,30.19,NNE,30,1.0,1.0,71,0.00,,---,0.00,VWS V14.01,2013-03-02 07:31:00,
2013-03-02 02:36:00,12.3,5.0,30.19,NNE,30,0.0,2.0,72,0.00,,---,0.00,VWS V14.01,2013-03-02 07:36:00,
2013-03-02 02:40:00,11.9,4.6,30.19,NNE,30,0.0,2.0,72,0.00,,---,0.00,VWS V14.01,2013-03-02 07:40:00,
2013-03-02 02:41:00,11.8,4.8,30.19,NNE,30,0.0,0.0,73,0.00,,---,0.00,VWS V14.01,2013-03-02 07:41:00,
2013-03-02 02:46:00,11.5,4.5,30.19,NNE,30,0.0,2.0,73,0.00,,---,0.00,VWS V14.01,2013-03-02 07:46:00,
2013-03-02 02:50:00,11.5,4.8,30.19,NNE,30,0.0,2.0,74,0.00,,---,0.00,VWS V14.01,2013-03-02 07:50:00,
2013-03-02 02:51:00,11.5,5.1,30.18,NNE,30,0.0,1.0,75,0.00,,---,0.00,VWS V14.01,2013-03-02 07:51:00,
2013-03-02 02:56:00,11.3,4.9,30.19,NNE,30,0.0,2.0,75,0.00,,---,0.00,VWS V14.01,2013-03-02 07:56:00,
2013-03-02 03:00:00,11.5,5.4,30.18,NNE,30,0.0,2.0,76,0.00,,---,0.00,VWS V14.01,2013-03-02 08:00:00,
2013-03-02 03:01:00,11.5,5.4,30.18,NNE,30,0.0,0.0,76,0.00,,---,0.00,VWS V14.01,2013-03-02 08:01:00,
2013-03-02 03:06:00,11.5,5.7,30.18,NNE,30,0.0,2.0,77,0.00,,---,0.00,VWS V14.01,2013-03-02 08:06:00,
2013-03-02 03:10:00,11.7,5.9,30.18,NNE,30,0.0,2.0,77,0.00,,---,0.00,VWS V14.01,2013-03-02 08:10:00,
2013-03-02 03:11:00,11.6,5.8,30.18,NNE,30,0.0,3.0,77,0.00,,---,0.00,VWS V14.01,2013-03-02 08:11:00,
2013-03-02 03:16:00,12.5,7.0,30.18,NNE,16,3.0,7.0,78,0.00,,---,0.00,VWS V14.01,2013-03-02 08:16:00,
2013-03-02 03:20:00,13.2,7.6,30.18,NNE,16,3.0,7.0,78,0.00,,---,0.00,VWS V14.01,2013-03-02 08:20:00,
2013-03-02 03:21:00,13.6,8.0,30.18,North,5,2.0,5.0,78,0.00,,---,0.00,VWS V14.01,2013-03-02 08:21:00,
2013-03-02 03:26:00,14.3,8.1,30.18,North,0,3.0,6.0,76,0.00,,---,0.00,VWS V14.01,2013-03-02 08:26:00,
2013-03-02 03:30:00,14.6,8.4,30.18,North,0,2.0,6.0,76,0.00,,---,0.00,VWS V14.01,2013-03-02 08:30:00,
2013-03-02 03:31:00,14.6,7.8,30.18,North,0,2.0,4.0,74,0.00,,---,0.00,VWS V14.01,2013-03-02 08:31:00,
2013-03-02 03:36:00,14.8,8.0,30.18,North,0,2.0,4.0,74,0.00,,---,0.00,VWS V14.01,2013-03-02 08:36:00,
2013-03-02 03:40:00,14.9,7.8,30.18,North,0,2.0,4.0,73,0.00,,---,0.00,VWS V14.01,2013-03-02 08:40:00,
2013-03-02 03:41:00,15.1,8.0,30.18,North,0,3.0,5.0,73,0.00,,---,0.00,VWS V14.01,2013-03-02 08:41:00,
2013-03-02 03:46:00,15.2,8.1,30.18,North,0,3.0,5.0,73,0.00,,---,0.00,VWS V14.01,2013-03-02 08:46:00,
2013-03-02 03:50:00,15.2,8.1,30.18,North,0,2.0,5.0,73,0.00,,---,0.00,VWS V14.01,2013-03-02 08:50:00,
2013-03-02 03:51:00,15.4,8.3,30.18,North,4,6.0,6.0,73,0.00,,---,0.00,VWS V14.01,2013-03-02 08:51:00,
2013-03-02 03:56:00,15.6,8.2,30.17,NNE,18,3.0,7.0,72,0.00,,---,0.00,VWS V14.01,2013-03-02 08:56:00,
2013-03-02 04:00:00,15.8,8.4,30.18,NE,36,5.0,10.0,72,0.00,,---,0.00,VWS V14.01,2013-03-02 09:00:00,
2013-03-02 04:02:00,15.9,8.5,30.18,NNE,31,7.0,9.0,72,0.00,,---,0.00,VWS V14.01,2013-03-02 09:02:00,
2013-03-02 04:07:00,16.1,8.1,30.18,North,2,6.0,11.0,70,0.00,,---,0.00,VWS V14.01,2013-03-02 09:07:00,
2013-03-02 04:10:00,16.2,8.1,30.18,North,7,3.0,11.0,70,0.00,,---,0.00,VWS V14.01,2013-03-02 09:10:00,
2013-03-02 04:12:00,16.2,8.1,30.18,NNE,29,4.0,7.0,70,0.00,,---,0.00,VWS V14.01,2013-03-02 09:12:00,
2013-03-02 04:17:00,16.2,8.1,30.18,North,7,3.0,9.0,70,0.00,,---,0.00,VWS V14.01,2013-03-02 09:17:00,
2013-03-02 04:20:00,16.2,8.1,30.18,NNE,18,3.0,9.0,70,0.00,,---,0.00,VWS V14.01,2013-03-02 09:20:00,
2013-03-02 04:22:00,16.2,8.1,30.18,North,0,3.0,5.0,70,0.00,,---,0.00,VWS V14.01,2013-03-02 09:22:00,
2013-03-02 04:27:00,16.1,8.1,30.18,North,9,5.0,6.0,70,0.00,,---,0.00,VWS V14.01,2013-03-02 09:27:00,
2013-03-02 04:30:00,16.2,8.1,30.17,NNE,13,3.0,7.0,70,0.00,,---,0.00,VWS V14.01,2013-03-02 09:30:00,
2013-03-02 04:32:00,16.2,8.1,30.18,NNE,25,4.0,6.0,70,0.00,,---,0.00,VWS V14.01,2013-03-02 09:32:00,
2013-03-02 04:37:00,16.1,8.1,30.18,NNE,23,8.0,8.0,70,0.00,,---,0.00,VWS V14.01,2013-03-02 09:37:00,
2013-03-02 04:40:00,16.1,8.1,30.17,NNE,25,3.0,8.0,70,0.00,,---,0.00,VWS V14.01,2013-03-02 09:40:00,
2013-03-02 04:42:00,16.1,7.7,30.18,North,7,5.0,7.0,69,0.00,,---,0.00,VWS V14.01,2013-03-02 09:42:00,
2013-03-02 04:47:00,16.1,8.1,30.18,NNE,29,5.0,8.0,70,0.00,,---,0.00,VWS V14.01,2013-03-02 09:47:00,
2013-03-02 04:50:00,16.1,7.7,30.18,North,4,4.0,8.0,69,0.00,,---,0.00,VWS V14.01,2013-03-02 09:50:00,
2013-03-02 04:52:00,16.1,7.7,30.18,NNE,14,5.0,7.0,69,0.00,,---,0.00,VWS V14.01,2013-03-02 09:52:00,
2013-03-02 04:57:00,15.9,7.5,30.18,NNE,29,3.0,7.0,69,0.00,,---,0.00,VWS V14.01,2013-03-02 09:57:00,
2013-03-02 05:00:00,15.9,7.6,30.17,North,0,2.0,7.0,69,0.00,,---,0.00,VWS V14.01,2013-03-02 10:00:00,
2013-03-02 05:02:00,15.9,7.5,30.17,NNE,15,4.0,7.0,69,0.00,,---,0.00,VWS V14.01,2013-03-02 10:02:00,
2013-03-02 05:07:00,15.8,7.4,30.18,North,5,4.0,7.0,69,0.00,,---,0.00,VWS V14.01,2013-03-02 10:07:00,
2013-03-02 05:10:00,15.7,7.3,30.17,NNE,19,2.0,7.0,69,0.00,,---,0.00,VWS V14.01,2013-03-02 10:10:00,
2013-03-02 05:12:00,15.7,7.3,30.17,North,8,7.0,7.0,69,0.00,,---,0.00,VWS V14.01,2013-03-02 10:12:00,
2013-03-02 05:17:00,15.6,7.3,30.17,NNE,12,3.0,7.0,69,0.00,,---,0.00,VWS V14.01,2013-03-02 10:17:00,
2013-03-02 05:20:00,15.6,7.6,30.18,NNE,20,3.0,7.0,70,0.00,,---,0.00,VWS V14.01,2013-03-02 10:20:00,
2013-03-02 05:22:00,15.4,7.4,30.17,North,2,3.0,6.0,70,0.00,,---,0.00,VWS V14.01,2013-03-02 10:22:00,
2013-03-02 05:27:00,15.4,7.1,30.17,NNE,30,6.0,7.0,69,0.00,,---,0.00,VWS V14.01,2013-03-02 10:27:00,
2013-03-02 05:30:00,15.4,7.1,30.17,North,0,4.0,7.0,69,0.00,,---,0.00,VWS V14.01,2013-03-02 10:30:00,
2013-03-02 05:32:00,15.3,7.3,30.18,NNE,20,5.0,6.0,70,0.00,,---,0.00,VWS V14.01,2013-03-02 10:32:00,
2013-03-02 05:37:00,15.3,7.3,30.18,NNE,18,1.0,7.0,70,0.00,,---,0.00,VWS V14.01,2013-03-02 10:37:00,
2013-03-02 05:40:00,15.3,7.3,30.18,NNE,18,1.0,52.0,70,0.00,,---,0.00,VWS V14.01,2013-03-02 10:40:00,
2013-03-02 05:42:00,15.2,7.2,30.18,NNE,18,5.0,5.0,70,0.00,,---,0.00,VWS V14.01,2013-03-02 10:42:00,
2013-03-02 05:47:00,15.1,7.1,30.18,North,0,4.0,6.0,70,0.00,,---,0.00,VWS V14.01,2013-03-02 10:47:00,
2013-03-02 05:50:00,15.1,7.1,30.18,North,0,1.0,6.0,70,0.00,,---,0.00,VWS V14.01,2013-03-02 10:50:00,
2013-03-02 05:52:00,15.1,7.1,30.18,North,0,1.0,4.0,70,0.00,,---,0.00,VWS V14.01,2013-03-02 10:52:00,
2013-03-02 05:57:00,15.0,7.0,30.18,North,0,1.0,6.0,70,0.00,,---,0.00,VWS V14.01,2013-03-02 10:57:00,
2013-03-02 06:00:00,14.9,6.9,30.18,North,0,4.0,6.0,70,0.00,,---,0.00,VWS V14.01,2013-03-02 11:00:00,
2013-03-02 06:02:00,14.9,6.9,30.18,North,7,4.0,9.0,70,0.00,,---,0.00,VWS V14.01,2013-03-02 11:02:00,
2013-03-02 06:07:00,14.8,6.8,30.18,North,4,5.0,9.0,70,0.00,,---,0.00,VWS V14.01,2013-03-02 11:07:00,
2013-03-02 06:10:00,14.8,6.8,30.18,NNE,23,4.0,9.0,70,0.00,,---,0.00,VWS V14.01,2013-03-02 11:10:00,
2013-03-02 06:12:00,14.6,6.6,30.18,NNE,13,2.0,8.0,70,0.00,,---,0.00,VWS V14.01,2013-03-02 11:12:00,
2013-03-02 06:17:00,14.6,6.6,30.18,NNE,20,6.0,8.0,70,0.00,,---,0.00,VWS V14.01,2013-03-02 11:17:00,
2013-03-02 06:20:00,14.4,6.4,30.18,NNE,22,4.0,8.0,70,0.00,,---,0.00,VWS V14.01,2013-03-02 11:20:00,
2013-03-02 06:22:00,14.5,6.5,30.19,North,5,4.0,5.0,70,0.00,,---,0.00,VWS V14.01,2013-03-02 11:22:00,
2013-03-02 06:27:00,14.4,6.4,30.18,North,0,3.0,5.0,70,0.00,,---,0.00,VWS V14.01,2013-03-02 11:27:00,
2013-03-02 06:30:00,14.5,6.5,30.18,North,0,2.0,5.0,70,0.00,,---,0.00,VWS V14.01,2013-03-02 11:30:00,
2013-03-02 06:32:00,14.5,6.8,30.18,North,0,2.0,5.0,71,0.00,,---,0.00,VWS V14.01,2013-03-02 11:32:00,
2013-03-02 06:37:00,14.3,6.6,30.18,North,0,1.0,5.0,71,0.00,,---,0.00,VWS V14.01,2013-03-02 11:37:00,
2013-03-02 06:40:00,14.3,6.6,30.19,North,0,1.0,5.0,71,0.00,,---,0.00,VWS V14.01,2013-03-02 11:40:00,
2013-03-02 06:42:00,14.3,6.6,30.19,North,0,2.0,4.0,71,0.00,,---,0.00,VWS V14.01,2013-03-02 11:42:00,
2013-03-02 06:47:00,14.3,6.6,30.18,North,8,4.0,6.0,71,0.00,,---,0.00,VWS V14.01,2013-03-02 11:47:00,
2013-03-02 06:50:00,14.1,6.4,30.18,North,8,2.0,6.0,71,0.00,,---,0.00,VWS V14.01,2013-03-02 11:50:00,
2013-03-02 06:52:00,14.1,6.4,30.18,North,2,3.0,6.0,71,0.00,,---,0.00,VWS V14.01,2013-03-02 11:52:00,
2013-03-02 06:57:00,14.1,6.4,30.19,North,2,1.0,6.0,71,0.00,,---,0.00,VWS V14.01,2013-03-02 11:57:00,
2013-03-02 07:00:00,14.1,6.4,30.18,North,2,2.0,6.0,71,0.00,,---,0.00,VWS V14.01,2013-03-02 12:00:00,
2013-03-02 07:02:00,14.1,6.4,30.19,North,2,1.0,4.0,71,0.00,,---,0.00,VWS V14.01,2013-03-02 12:02:00,
2013-03-02 07:07:00,14.1,6.8,30.18,North,2,5.0,5.0,72,0.00,,---,0.00,VWS V14.01,2013-03-02 12:07:00,
2013-03-02 07:10:00,14.1,6.4,30.19,NNE,21,4.0,7.0,71,0.00,,---,0.00,VWS V14.01,2013-03-02 12:10:00,
2013-03-02 07:12:00,14.1,6.4,30.19,North,6,4.0,5.0,71,0.00,,---,0.00,VWS V14.01,2013-03-02 12:12:00,
2013-03-02 07:17:00,14.1,6.4,30.19,NE,35,5.0,7.0,71,0.00,,---,0.00,VWS V14.01,2013-03-02 12:17:00,
2013-03-02 07:20:00,14.1,6.4,30.19,NE,42,3.0,8.0,71,0.00,,---,0.00,VWS V14.01,2013-03-02 12:20:00,
2013-03-02 07:22:00,14.1,6.8,30.19,NNE,30,6.0,8.0,72,0.00,,---,0.00,VWS V14.01,2013-03-02 12:22:00,
2013-03-02 07:28:00,14.0,6.7,30.19,NE,34,5.0,8.0,72,0.00,,---,0.00,VWS V14.01,2013-03-02 12:28:00,
2013-03-02 07:30:00,13.9,6.6,30.19,NNE,12,6.0,8.0,72,0.00,,---,0.00,VWS V14.01,2013-03-02 12:30:00,
2013-03-02 07:33:00,14.0,6.3,30.19,NNE,22,5.0,10.0,71,0.00,,---,0.00,VWS V14.01,2013-03-02 12:33:00,
2013-03-02 07:38:00,13.8,6.5,30.19,North,3,5.0,10.0,72,0.00,,---,0.00,VWS V14.01,2013-03-02 12:38:00,
2013-03-02 07:40:00,13.8,6.5,30.20,North,0,4.0,10.0,72,0.00,,---,0.00,VWS V14.01,2013-03-02 12:40:00,
2013-03-02 07:43:00,13.8,6.2,30.19,NNE,13,5.0,7.0,71,0.00,,---,0.00,VWS V14.01,2013-03-02 12:43:00,
2013-03-02 07:48:00,13.8,6.2,30.19,North,5,5.0,9.0,71,0.00,,---,0.00,VWS V14.01,2013-03-02 12:48:00,
2013-03-02 07:50:00,13.8,6.2,30.19,NNE,13,3.0,9.0,71,0.00,,---,0.00,VWS V14.01,2013-03-02 12:50:00,
2013-03-02 07:53:00,13.8,6.2,30.19,NNE,16,4.0,6.0,71,0.00,,---,0.00,VWS V14.01,2013-03-02 12:53:00,
2013-03-02 07:58:00,13.8,6.2,30.19,North,352,6.0,8.0,71,0.00,,---,0.00,VWS V14.01,2013-03-02 12:58:00,
2013-03-02 08:00:00,13.8,6.2,30.19,North,353,4.0,8.0,71,0.00,,---,0.00,VWS V14.01,2013-03-02 13:00:00,
2013-03-02 08:03:00,13.8,6.2,30.19,NNE,13,3.0,7.0,71,0.00,,---,0.00,VWS V14.01,2013-03-02 13:03:00,
2013-03-02 08:08:00,13.8,6.2,30.19,North,11,5.0,7.0,71,0.00,,---,0.00,VWS V14.01,2013-03-02 13:08:00,
2013-03-02 08:10:00,13.8,6.2,30.19,North,11,4.0,7.0,71,0.00,,---,0.00,VWS V14.01,2013-03-02 13:10:00,
2013-03-02 08:13:00,13.8,6.2,30.19,North,2,2.0,7.0,71,0.00,,---,0.00,VWS V14.01,2013-03-02 13:13:00,
2013-03-02 08:18:00,13.8,6.5,30.19,NNE,25,6.0,7.0,72,0.00,,---,0.00,VWS V14.01,2013-03-02 13:18:00,
2013-03-02 08:20:00,13.8,6.5,30.19,NNE,25,4.0,7.0,72,0.00,,---,0.00,VWS V14.01,2013-03-02 13:20:00,
2013-03-02 08:23:00,13.8,6.5,30.19,NNE,20,6.0,7.0,72,0.00,,---,0.00,VWS V14.01,2013-03-02 13:23:00,
2013-03-02 08:28:00,13.8,6.5,30.19,NNE,28,5.0,7.0,72,0.00,,---,0.00,VWS V14.01,2013-03-02 13:28:00,
2013-03-02 08:30:00,13.8,6.5,30.19,NNE,30,4.0,7.0,72,0.00,,---,0.00,VWS V14.01,2013-03-02 13:30:00,
2013-03-02 08:33:00,13.8,6.5,30.19,North,8,3.0,7.0,72,0.00,,---,0.00,VWS V14.01,2013-03-02 13:33:00,
2013-03-02 08:38:00,14.0,6.7,30.19,NE,38,4.0,7.0,72,0.00,,---,0.00,VWS V14.01,2013-03-02 13:38:00,
2013-03-02 08:40:00,14.0,6.7,30.19,NE,38,4.0,7.0,72,0.00,,---,0.00,VWS V14.01,2013-03-02 13:40:00,
2013-03-02 08:43:00,14.0,6.7,30.19,NNE,27,3.0,7.0,72,0.00,,---,0.00,VWS V14.01,2013-03-02 13:43:00,
2013-03-02 08:48:00,14.1,7.1,30.19,NNE,27,4.0,7.0,73,0.00,,---,0.00,VWS V14.01,2013-03-02 13:48:00,
2013-03-02 08:50:00,14.1,7.1,30.19,NNE,28,5.0,7.0,73,0.00,,---,0.00,VWS V14.01,2013-03-02 13:50:00,
2013-03-02 08:53:00,14.3,7.2,30.19,NNE,17,4.0,7.0,73,0.00,,---,0.00,VWS V14.01,2013-03-02 13:53:00,
2013-03-02 08:58:00,14.3,7.2,30.19,NE,41,5.0,7.0,73,0.00,,---,0.00,VWS V14.01,2013-03-02 13:58:00,
2013-03-02 09:00:00,14.3,7.2,30.19,NE,41,4.0,7.0,73,0.00,,---,0.00,VWS V14.01,2013-03-02 14:00:00,
2013-03-02 09:03:00,14.4,7.3,30.19,NE,41,3.0,6.0,73,0.00,,---,0.00,VWS V14.01,2013-03-02 14:03:00,
2013-03-02 09:08:00,14.6,7.5,30.19,NE,41,4.0,6.0,73,0.00,,---,0.00,VWS V14.01,2013-03-02 14:08:00,
2013-03-02 09:10:00,14.6,7.5,30.19,NE,41,4.0,6.0,73,0.00,,---,0.00,VWS V14.01,2013-03-02 14:10:00,
2013-03-02 09:13:00,14.6,7.2,30.19,NE,41,4.0,6.0,72,0.00,,---,0.00,VWS V14.01,2013-03-02 14:13:00,
2013-03-02 09:18:00,14.9,7.5,30.19,NE,41,4.0,6.0,72,0.00,,---,0.00,VWS V14.01,2013-03-02 14:18:00,
2013-03-02 09:20:00,14.9,7.5,30.19,NE,39,3.0,6.0,72,0.00,,---,0.00,VWS V14.01,2013-03-02 14:20:00,
2013-03-02 09:23:00,15.1,8.0,30.19,NNW,347,3.0,6.0,73,0.00,,---,0.00,VWS V14.01,2013-03-02 14:23:00,
2013-03-02 09:28:00,15.4,8.3,30.19,NNW,346,5.0,7.0,73,0.00,,---,0.00,VWS V14.01,2013-03-02 14:28:00,
2013-03-02 09:30:00,15.4,8.3,30.19,NNW,337,3.0,7.0,73,0.00,,---,0.00,VWS V14.01,2013-03-02 14:30:00,
2013-03-02 09:33:00,15.6,8.5,30.19,North,351,3.0,6.0,73,0.00,,---,0.00,VWS V14.01,2013-03-02 14:33:00,
2013-03-02 09:38:00,15.6,8.2,30.19,NNW,348,2.0,7.0,72,0.00,,---,0.00,VWS V14.01,2013-03-02 14:38:00,
2013-03-02 09:40:00,15.6,8.2,30.19,NNW,343,6.0,7.0,72,0.00,,---,0.00,VWS V14.01,2013-03-02 14:40:00,
2013-03-02 09:43:00,15.6,8.2,30.18,NNW,339,4.0,7.0,72,0.00,,---,0.00,VWS V14.01,2013-03-02 14:43:00,
2013-03-02 09:48:00,15.6,8.2,30.18,NNW,344,3.0,10.0,72,0.00,,---,0.00,VWS V14.01,2013-03-02 14:48:00,
2013-03-02 09:50:00,15.6,8.2,30.18,NNW,344,3.0,10.0,72,0.00,,---,0.00,VWS V14.01,2013-03-02 14:50:00,
2013-03-02 09:53:00,15.8,8.7,30.18,NNW,344,2.0,5.0,73,0.00,,---,0.00,VWS V14.01,2013-03-02 14:53:00,
2013-03-02 09:58:00,16.1,9.0,30.18,NNW,341,3.0,7.0,73,0.00,,---,0.00,VWS V14.01,2013-03-02 14:58:00,
2013-03-02 10:00:00,16.1,9.0,30.18,NNW,340,3.0,7.0,73,0.00,,---,0.00,VWS V14.01,2013-03-02 15:00:00,
2013-03-02 10:03:00,16.2,9.1,30.18,NNW,344,8.0,8.0,73,0.00,,---,0.00,VWS V14.01,2013-03-02 15:03:00,
2013-03-02 10:08:00,16.4,9.3,30.18,NNW,343,5.0,9.0,73,0.00,,---,0.00,VWS V14.01,2013-03-02 15:08:00,
2013-03-02 10:10:00,16.4,9.3,30.18,NNW,332,6.0,9.0,73,0.00,,---,0.00,VWS V14.01,2013-03-02 15:10:00,
2013-03-02 10:13:00,16.6,9.5,30.19,North,359,4.0,8.0,73,0.00,,---,0.00,VWS V14.01,2013-03-02 15:13:00,
2013-03-02 10:19:00,16.9,10.1,30.18,North,359,4.0,8.0,74,0.00,,---,0.00,VWS V14.01,2013-03-02 15:19:00,
2013-03-02 10:20:00,16.9,9.8,30.18,NNW,348,4.0,8.0,73,0.00,,---,0.00,VWS V14.01,2013-03-02 15:20:00,
2013-03-02 10:24:00,17.0,9.9,30.19,NNW,348,6.0,9.0,73,0.00,,---,0.00,VWS V14.01,2013-03-02 15:24:00,
2013-03-02 10:29:00,16.9,9.8,30.19,NNW,332,6.0,9.0,73,0.00,,---,0.00,VWS V14.01,2013-03-02 15:29:00,
2013-03-02 10:30:00,16.9,9.8,30.18,NNW,332,4.0,9.0,73,0.00,,---,0.00,VWS V14.01,2013-03-02 15:30:00,
2013-03-02 10:34:00,17.0,10.2,30.19,North,349,4.0,7.0,74,0.00,,---,0.00,VWS V14.01,2013-03-02 15:34:00,
2013-03-02 10:39:00,17.4,10.6,30.19,NNW,340,7.0,8.0,74,0.00,,---,0.00,VWS V14.01,2013-03-02 15:39:00,
2013-03-02 10:40:00,17.4,10.6,30.19,NNW,333,5.0,8.0,74,0.00,,---,0.00,VWS V14.01,2013-03-02 15:40:00,
2013-03-02 10:44:00,17.4,10.6,30.19,NNW,340,6.0,9.0,74,0.00,,---,0.00,VWS V14.01,2013-03-02 15:44:00,
2013-03-02 10:49:00,17.5,10.6,30.19,NNW,341,7.0,9.0,74,0.00,,---,0.00,VWS V14.01,2013-03-02 15:49:00,
2013-03-02 10:50:00,17.5,10.9,30.19,North,358,6.0,9.0,75,0.00,,---,0.00,VWS V14.01,2013-03-02 15:50:00,
2013-03-02 10:54:00,17.5,10.6,30.19,North,352,8.0,12.0,74,0.00,,---,0.00,VWS V14.01,2013-03-02 15:54:00,
2013-03-02 10:59:00,17.5,10.6,30.19,North,350,10.0,12.0,74,0.00,,---,0.00,VWS V14.01,2013-03-02 15:59:00,
2013-03-02 11:00:00,17.5,10.6,30.19,NNW,336,9.0,12.0,74,0.00,,---,0.00,VWS V14.01,2013-03-02 16:00:00,
2013-03-02 11:04:00,17.7,10.8,30.18,NNW,339,5.0,11.0,74,0.00,,---,0.00,VWS V14.01,2013-03-02 16:04:00,
2013-03-02 11:09:00,17.8,10.6,30.19,North,356,11.0,13.0,73,0.00,,---,0.00,VWS V14.01,2013-03-02 16:09:00,
2013-03-02 11:10:00,17.8,10.9,30.19,North,352,8.0,13.0,74,0.00,,---,0.00,VWS V14.01,2013-03-02 16:10:00,
2013-03-02 11:14:00,17.8,10.6,30.19,NNW,346,7.0,12.0,73,0.00,,---,0.00,VWS V14.01,2013-03-02 16:14:00,
2013-03-02 11:19:00,17.7,10.5,30.18,North,359,7.0,12.0,73,0.00,,---,0.00,VWS V14.01,2013-03-02 16:19:00,
2013-03-02 11:20:00,17.8,10.6,30.19,NNW,348,7.0,12.0,73,0.00,,---,0.00,VWS V14.01,2013-03-02 16:20:00,
2013-03-02 11:24:00,17.8,10.6,30.18,NNW,347,9.0,11.0,73,0.00,,---,0.00,VWS V14.01,2013-03-02 16:24:00,
2013-03-02 11:29:00,18.0,10.8,30.18,North,352,7.0,11.0,73,0.00,,---,0.00,VWS V14.01,2013-03-02 16:29:00,
2013-03-02 11:30:00,18.0,10.8,30.18,North,352,10.0,11.0,73,0.00,,---,0.00,VWS V14.01,2013-03-02 16:30:00,
2013-03-02 11:34:00,18.3,10.8,30.18,NNW,348,8.0,11.0,72,0.00,,---,0.00,VWS V14.01,2013-03-02 16:34:00,
2013-03-02 11:39:00,18.4,10.9,30.18,North,349,6.0,11.0,72,0.00,,---,0.00,VWS V14.01,2013-03-02 16:39:00,
2013-03-02 11:40:00,18.5,11.0,30.18,North,352,7.0,11.0,72,0.00,,---,0.00,VWS V14.01,2013-03-02 16:40:00,
2013-03-02 11:44:00,18.6,11.1,30.18,North,354,4.0,10.0,72,0.00,,---,0.00,VWS V14.01,2013-03-02 16:44:00,
2013-03-02 11:49:00,18.9,11.1,30.18,NNW,340,7.0,11.0,71,0.00,,---,0.00,VWS V14.01,2013-03-02 16:49:00,
2013-03-02 11:50:00,18.9,11.1,30.18,NNW,348,8.0,11.0,71,0.00,,---,0.00,VWS V14.01,2013-03-02 16:50:00,
2013-03-02 11:54:00,18.9,11.1,30.18,NNW,332,6.0,11.0,71,0.00,,---,0.00,VWS V14.01,2013-03-02 16:54:00,
2013-03-02 11:59:00,19.1,11.3,30.18,NNW,338,7.0,14.0,71,0.00,,---,0.00,VWS V14.01,2013-03-02 16:59:00,
2013-03-02 12:00:00,19.1,11.3,30.18,NNW,347,9.0,14.0,71,0.00,,---,0.00,VWS V14.01,2013-03-02 17:00:00,
2013-03-02 12:04:00,19.2,11.4,30.18,North,352,9.0,12.0,71,0.00,,---,0.00,VWS V14.01,2013-03-02 17:04:00,
2013-03-02 12:09:00,19.2,11.4,30.18,North,355,11.0,14.0,71,0.00,,---,0.00,VWS V14.01,2013-03-02 17:09:00,
2013-03-02 12:10:00,19.3,11.4,30.18,North,352,7.0,14.0,71,0.00,,---,0.00,VWS V14.01,2013-03-02 17:10:00,
2013-03-02 12:14:00,19.2,11.4,30.18,NNW,341,7.0,12.0,71,0.00,,---,0.00,VWS V14.01,2013-03-02 17:14:00,
2013-03-02 12:19:00,19.4,11.9,30.17,NNW,348,6.0,12.0,72,0.00,,---,0.00,VWS V14.01,2013-03-02 17:19:00,
2013-03-02 12:20:00,19.4,11.9,30.17,North,354,7.0,12.0,72,0.00,,---,0.00,VWS V14.01,2013-03-02 17:20:00,
2013-03-02 12:24:00,19.6,12.1,30.17,NNW,336,7.0,12.0,72,0.00,,---,0.00,VWS V14.01,2013-03-02 17:24:00,
2013-03-02 12:29:00,19.6,12.1,30.17,NNW,345,9.0,14.0,72,0.00,,---,0.00,VWS V14.01,2013-03-02 17:29:00,
2013-03-02 12:30:00,19.6,12.1,30.17,NNW,341,8.0,14.0,72,0.00,,---,0.00,VWS V14.01,2013-03-02 17:30:00,
2013-03-02 12:34:00,19.7,12.1,30.17,NNW,345,9.0,15.0,72,0.00,,---,0.00,VWS V14.01,2013-03-02 17:34:00,
2013-03-02 12:39:00,19.7,12.1,30.17,NNW,340,9.0,15.0,72,0.00,,---,0.00,VWS V14.01,2013-03-02 17:39:00,
2013-03-02 12:40:00,19.7,12.1,30.17,North,5,9.0,15.0,72,0.00,,---,0.00,VWS V14.01,2013-03-02 17:40:00,
2013-03-02 12:44:00,19.7,12.1,30.17,NNW,343,9.0,14.0,72,0.00,,---,0.00,VWS V14.01,2013-03-02 17:44:00,
2013-03-02 12:49:00,19.7,11.8,30.16,NNW,345,9.0,14.0,71,0.00,,---,0.00,VWS V14.01,2013-03-02 17:49:00,
2013-03-02 12:50:00,19.7,11.8,30.16,NNW,346,9.0,14.0,71,0.00,,---,0.00,VWS V14.01,2013-03-02 17:50:00,
2013-03-02 12:54:00,19.7,12.1,30.16,North,1,11.0,14.0,72,0.00,,---,0.00,VWS V14.01,2013-03-02 17:54:00,
2013-03-02 12:59:00,19.6,12.1,30.16,NNW,346,10.0,15.0,72,0.00,,---,0.00,VWS V14.01,2013-03-02 17:59:00,
2013-03-02 13:00:00,19.6,12.1,30.16,NNW,346,10.0,15.0,72,0.00,,---,0.00,VWS V14.01,2013-03-02 18:00:00,
2013-03-02 13:04:00,19.4,12.2,30.16,NNW,337,11.0,14.0,73,0.00,,---,0.00,VWS V14.01,2013-03-02 18:04:00,
2013-03-02 13:09:00,19.2,12.0,30.16,NNE,12,12.0,14.0,73,0.00,,---,0.00,VWS V14.01,2013-03-02 18:09:00,
2013-03-02 13:10:00,19.2,12.0,30.16,NNE,12,12.0,14.0,73,0.00,,---,0.00,VWS V14.01,2013-03-02 18:10:00,
2013-03-02 13:14:00,19.2,12.0,30.16,NNW,335,10.0,16.0,73,0.00,,---,0.00,VWS V14.01,2013-03-02 18:14:00,
2013-03-02 13:19:00,19.2,12.0,30.16,NW,324,5.0,16.0,73,0.00,,---,0.00,VWS V14.01,2013-03-02 18:19:00,
2013-03-02 13:20:00,19.2,12.0,30.16,NW,324,5.0,16.0,73,0.00,,---,0.00,VWS V14.01,2013-03-02 18:20:00,
2013-03-02 13:24:00,19.4,12.5,30.16,NW,320,4.0,16.0,74,0.00,,---,0.00,VWS V14.01,2013-03-02 18:24:00,
2013-03-02 13:29:00,19.6,12.4,30.16,North,355,9.0,10.0,73,0.00,,---,0.00,VWS V14.01,2013-03-02 18:29:00,
2013-03-02 13:30:00,19.6,12.4,30.16,North,352,10.0,16.0,73,0.00,,---,0.00,VWS V14.01,2013-03-02 18:30:00,
2013-03-02 13:34:00,19.6,12.4,30.15,North,354,7.0,15.0,73,0.00,,---,0.00,VWS V14.01,2013-03-02 18:34:00,
2013-03-02 13:39:00,19.7,12.5,30.15,NNW,348,9.0,9.0,73,0.00,,---,0.00,VWS V14.01,2013-03-02 18:39:00,
2013-03-02 13:40:00,19.7,12.5,30.15,North,349,9.0,15.0,73,0.00,,---,0.00,VWS V14.01,2013-03-02 18:40:00,
2013-03-02 13:44:00,19.9,12.7,30.15,NW,313,7.0,18.0,73,0.00,,---,0.00,VWS V14.01,2013-03-02 18:44:00,
2013-03-02 13:49:00,20.3,13.0,30.15,NNW,343,13.0,13.0,73,0.00,,---,0.00,VWS V14.01,2013-03-02 18:49:00,
2013-03-02 13:50:00,20.3,13.0,30.15,NNW,337,6.0,18.0,73,0.00,,---,0.00,VWS V14.01,2013-03-02 18:50:00,
2013-03-02 13:54:00,20.6,13.3,30.15,NNW,343,10.0,14.0,73,0.00,,---,0.00,VWS V14.01,2013-03-02 18:54:00,
2013-03-02 13:59:00,20.7,13.1,30.15,NNW,345,8.0,8.0,72,0.00,,---,0.00,VWS V14.01,2013-03-02 18:59:00,
2013-03-02 14:00:00,20.7,13.1,30.15,North,353,8.0,14.0,72,0.00,,---,0.00,VWS V14.01,2013-03-02 19:00:00,
2013-03-02 14:04:00,20.7,13.1,30.15,North,358,9.0,16.0,72,0.00,,---,0.00,VWS V14.01,2013-03-02 19:04:00,
2013-03-02 14:09:00,20.8,13.2,30.14,NNW,340,10.0,10.0,72,0.00,,---,0.00,VWS V14.01,2013-03-02 19:09:00,
2013-03-02 14:10:00,20.8,13.2,30.14,NNW,344,10.0,17.0,72,0.00,,---,0.00,VWS V14.01,2013-03-02 19:10:00,
2013-03-02 14:14:00,20.7,12.8,30.14,NNW,348,9.0,15.0,71,0.00,,---,0.00,VWS V14.01,2013-03-02 19:14:00,
2013-03-02 14:19:00,20.9,13.0,30.14,NNW,340,9.0,10.0,71,0.00,,---,0.00,VWS V14.01,2013-03-02 19:19:00,
2013-03-02 14:20:00,20.9,13.0,30.14,NNW,347,9.0,15.0,71,0.00,,---,0.00,VWS V14.01,2013-03-02 19:20:00,
2013-03-02 14:24:00,21.0,13.1,30.14,North,352,10.0,16.0,71,0.00,,---,0.00,VWS V14.01,2013-03-02 19:24:00,
2013-03-02 14:29:00,21.0,13.1,30.14,NNW,347,14.0,16.0,71,0.00,,---,0.00,VWS V14.01,2013-03-02 19:29:00,
2013-03-02 14:30:00,21.0,13.1,30.14,NNW,348,16.0,16.0,71,0.00,,---,0.00,VWS V14.01,2013-03-02 19:30:00,
2013-03-02 14:34:00,21.2,13.3,30.14,NNW,345,8.0,16.0,71,0.00,,---,0.00,VWS V14.01,2013-03-02 19:34:00,
2013-03-02 14:40:00,21.5,13.9,30.14,NNW,339,8.0,10.0,72,0.00,,---,0.00,VWS V14.01,2013-03-02 19:40:00,
2013-03-02 14:45:00,21.8,13.9,30.14,North,357,9.0,14.0,71,0.00,,---,0.00,VWS V14.01,2013-03-02 19:45:00,
2013-03-02 14:50:00,21.9,13.6,30.14,North,350,14.0,16.0,70,0.00,,---,0.00,VWS V14.01,2013-03-02 19:50:00,
2013-03-02 14:55:00,22.1,13.8,30.13,North,352,8.0,16.0,70,0.00,,---,0.00,VWS V14.01,2013-03-02 19:55:00,
2013-03-02 15:00:00,22.3,14.0,30.13,North,353,13.0,15.0,70,0.00,,---,0.00,VWS V14.01,2013-03-02 20:00:00,
2013-03-02 15:05:00,22.4,14.4,30.13,North,349,13.0,15.0,71,0.00,,---,0.00,VWS V14.01,2013-03-02 20:05:00,
2013-03-02 15:10:00,22.6,14.9,30.13,NNW,348,7.0,10.0,72,0.00,,---,0.00,VWS V14.01,2013-03-02 20:10:00,
2013-03-02 15:15:00,22.7,14.7,30.13,NNW,330,14.0,16.0,71,0.00,,---,0.00,VWS V14.01,2013-03-02 20:15:00,
2013-03-02 15:20:00,22.4,14.4,30.13,North,356,15.0,15.0,71,0.00,,---,0.00,VWS V14.01,2013-03-02 20:20:00,
2013-03-02 15:25:00,22.6,14.6,30.13,North,352,12.0,15.0,71,0.00,,---,0.00,VWS V14.01,2013-03-02 20:25:00,
2013-03-02 15:30:00,22.4,14.8,30.13,North,349,7.0,9.0,72,0.00,,---,0.00,VWS V14.01,2013-03-02 20:30:00,
2013-03-02 15:35:00,22.6,14.6,30.13,NNW,345,10.0,16.0,71,0.00,,---,0.00,VWS V14.01,2013-03-02 20:35:00,
2013-03-02 15:40:00,22.8,14.8,30.13,North,351,6.0,9.0,71,0.00,,---,0.00,VWS V14.01,2013-03-02 20:40:00,
2013-03-02 15:45:00,22.6,14.3,30.13,North,11,8.0,18.0,70,0.00,,---,0.00,VWS V14.01,2013-03-02 20:45:00,
2013-03-02 15:50:00,22.6,14.6,30.13,NNW,339,10.0,13.0,71,0.00,,---,0.00,VWS V14.01,2013-03-02 20:50:00,
2013-03-02 15:55:00,22.7,14.7,30.13,North,359,10.0,16.0,71,0.00,,---,0.00,VWS V14.01,2013-03-02 20:55:00,
2013-03-02 16:00:00,23.0,15.6,30.13,NNE,13,6.0,8.0,73,0.00,,---,0.00,VWS V14.01,2013-03-02 21:00:00,
2013-03-02 16:05:00,23.2,15.2,30.13,North,357,9.0,16.0,71,0.00,,---,0.00,VWS V14.01,2013-03-02 21:05:00,
2013-03-02 16:10:00,22.9,14.9,30.13,NNW,343,6.0,13.0,71,0.00,,---,0.00,VWS V14.01,2013-03-02 21:10:00,
2013-03-02 16:15:00,22.7,15.1,30.13,NNW,330,10.0,13.0,72,0.00,,---,0.00,VWS V14.01,2013-03-02 21:15:00,
2013-03-02 16:20:00,22.7,15.4,30.13,North,349,7.0,12.0,73,0.00,,---,0.00,VWS V14.01,2013-03-02 21:20:00,
2013-03-02 16:25:00,23.0,16.0,30.13,North,358,5.0,12.0,74,0.00,,---,0.00,VWS V14.01,2013-03-02 21:25:00,
2013-03-02 16:30:00,23.2,16.2,30.13,NNW,334,6.0,10.0,74,0.00,,---,0.00,VWS V14.01,2013-03-02 21:30:00,
2013-03-02 16:35:00,23.2,16.5,30.13,North,354,9.0,14.0,75,0.00,,---,0.00,VWS V14.01,2013-03-02 21:35:00,
2013-03-02 16:40:00,23.3,16.2,30.13,NNW,334,9.0,16.0,74,0.00,,---,0.00,VWS V14.01,2013-03-02 21:40:00,
2013-03-02 16:45:00,23.2,15.8,30.13,NNW,334,10.0,16.0,73,0.00,,---,0.00,VWS V14.01,2013-03-02 21:45:00,
2013-03-02 16:50:00,23.3,15.9,30.13,NNW,342,8.0,12.0,73,0.00,,---,0.00,VWS V14.01,2013-03-02 21:50:00,
2013-03-02 16:55:00,23.5,16.1,30.13,North,349,10.0,16.0,73,0.00,,---,0.00,VWS V14.01,2013-03-02 21:55:00,
2013-03-02 17:00:00,23.5,16.1,30.13,North,356,11.0,14.0,73,0.00,,---,0.00,VWS V14.01,2013-03-02 22:00:00,
2013-03-02 17:05:00,23.3,15.9,30.13,NNW,346,10.0,15.0,73,0.00,,---,0.00,VWS V14.01,2013-03-02 22:05:00,
2013-03-02 17:10:00,23.5,15.8,30.13,North,359,10.0,11.0,72,0.00,,---,0.00,VWS V14.01,2013-03-02 22:10:00,
2013-03-02 17:15:00,23.5,15.8,30.14,North,3,11.0,18.0,72,0.00,,---,0.00,VWS V14.01,2013-03-02 22:15:00,
2013-03-02 17:20:00,23.5,15.5,30.13,North,352,10.0,10.0,71,0.00,,---,0.00,VWS V14.01,2013-03-02 22:20:00,
2013-03-02 17:25:00,23.5,15.5,30.13,North,359,11.0,14.0,71,0.00,,---,0.00,VWS V14.01,2013-03-02 22:25:00,
2013-03-02 17:30:00,23.6,16.2,30.13,North,349,6.0,9.0,73,0.00,,---,0.00,VWS V14.01,2013-03-02 22:30:00,
2013-03-02 17:35:00,23.5,16.1,30.14,NNW,348,8.0,14.0,73,0.00,,---,0.00,VWS V14.01,2013-03-02 22:35:00,
2013-03-02 17:40:00,23.5,16.5,30.14,North,349,9.0,14.0,74,0.00,,---,0.00,VWS V14.01,2013-03-02 22:40:00,
2013-03-02 17:45:00,23.5,16.5,30.14,North,359,14.0,14.0,74,0.00,,---,0.00,VWS V14.01,2013-03-02 22:45:00,
2013-03-02 17:50:00,23.5,16.5,30.14,North,352,11.0,11.0,74,0.00,,---,0.00,VWS V14.01,2013-03-02 22:50:00,
2013-03-02 17:55:00,23.3,16.2,30.14,NNW,336,10.0,17.0,74,0.00,,---,0.00,VWS V14.01,2013-03-02 22:55:00,
2013-03-02 18:00:00,23.3,16.2,30.14,North,354,5.0,14.0,74,0.00,,---,0.00,VWS V14.01,2013-03-02 23:00:00,
2013-03-02 18:05:00,23.2,16.2,30.13,NNW,341,13.0,17.0,74,0.00,,---,0.00,VWS V14.01,2013-03-02 23:05:00,
2013-03-02 18:10:00,23.2,16.5,30.14,North,356,8.0,13.0,75,0.00,,---,0.00,VWS V14.01,2013-03-02 23:10:00,
2013-03-02 18:15:00,23.0,16.6,30.14,North,1,13.0,13.0,76,0.00,,---,0.00,VWS V14.01,2013-03-02 23:15:00,
2013-03-02 18:20:00,23.0,16.3,30.14,NNW,331,4.0,9.0,75,0.00,,---,0.00,VWS V14.01,2013-03-02 23:20:00,
2013-03-02 18:25:00,23.0,16.6,30.14,North,351,10.0,14.0,76,0.00,,---,0.00,VWS V14.01,2013-03-02 23:25:00,
2013-03-02 18:30:00,22.9,16.5,30.14,NNW,341,9.0,13.0,76,0.00,,---,0.00,VWS V14.01,2013-03-02 23:30:00,
2013-03-02 18:35:00,22.7,16.3,30.14,NNE,15,8.0,19.0,76,0.00,,---,0.00,VWS V14.01,2013-03-02 23:35:00,
2013-03-02 18:40:00,22.7,16.9,30.14,North,359,6.0,9.0,78,0.00,,---,0.00,VWS V14.01,2013-03-02 23:40:00,
2013-03-02 18:45:00,22.6,16.5,30.14,NNW,345,3.0,13.0,77,0.00,,---,0.00,VWS V14.01,2013-03-02 23:45:00,
2013-03-02 18:50:00,22.6,16.5,30.14,NNE,16,0.0,11.0,77,0.00,,---,0.00,VWS V14.01,2013-03-02 23:50:00,
2013-03-02 18:55:00,22.4,16.3,30.14,North,357,7.0,12.0,77,0.00,,---,0.00,VWS V14.01,2013-03-02 23:55:00,
2013-03-02 19:00:00,22.3,16.2,30.14,North,353,9.0,12.0,77,0.00,,---,0.00,VWS V14.01,2013-03-03 00:00:00,
2013-03-02 19:01:00,22.3,16.5,30.15,North,350,6.0,11.0,78,0.00,,---,0.00,VWS V14.01,2013-03-03 00:01:00,
2013-03-02 19:06:00,22.1,16.3,30.15,NNE,16,12.0,16.0,78,0.00,,---,0.00,VWS V14.01,2013-03-03 00:06:00,
2013-03-02 19:10:00,21.9,16.1,30.15,North,5,11.0,16.0,78,0.00,,---,0.00,VWS V14.01,2013-03-03 00:10:00,
2013-03-02 19:11:00,21.9,16.1,30.14,NNE,15,9.0,14.0,78,0.00,,---,0.00,VWS V14.01,2013-03-03 00:11:00,
2013-03-02 19:16:00,22.0,16.2,30.15,North,2,6.0,14.0,78,0.00,,---,0.00,VWS V14.01,2013-03-03 00:16:00,
2013-03-02 19:20:00,22.0,16.2,30.15,North,359,4.0,14.0,78,0.00,,---,0.00,VWS V14.01,2013-03-03 00:20:00,
2013-03-02 19:21:00,22.0,16.2,30.15,North,8,6.0,11.0,78,0.00,,---,0.00,VWS V14.01,2013-03-03 00:21:00,
2013-03-02 19:26:00,21.8,16.3,30.14,North,2,6.0,12.0,79,0.00,,---,0.00,VWS V14.01,2013-03-03 00:26:00,
2013-03-02 19:30:00,21.8,16.3,30.15,North,2,3.0,12.0,79,0.00,,---,0.00,VWS V14.01,2013-03-03 00:30:00,
2013-03-02 19:31:00,21.8,16.3,30.15,North,7,6.0,8.0,79,0.00,,---,0.00,VWS V14.01,2013-03-03 00:31:00,
2013-03-02 19:36:00,21.6,15.8,30.15,NNW,342,7.0,16.0,78,0.00,,---,0.00,VWS V14.01,2013-03-03 00:36:00,
2013-03-02 19:40:00,21.5,15.7,30.15,North,3,8.0,16.0,78,0.00,,---,0.00,VWS V14.01,2013-03-03 00:40:00,
2013-03-02 19:41:00,21.5,15.7,30.15,North,0,6.0,9.0,78,0.00,,---,0.00,VWS V14.01,2013-03-03 00:41:00,
2013-03-02 19:46:00,21.2,15.4,30.14,North,11,8.0,13.0,78,0.00,,---,0.00,VWS V14.01,2013-03-03 00:46:00,
2013-03-02 19:50:00,21.0,15.2,30.15,NNW,340,9.0,13.0,78,0.00,,---,0.00,VWS V14.01,2013-03-03 00:50:00,
2013-03-02 19:51:00,21.0,15.2,30.15,North,359,6.0,10.0,78,0.00,,---,0.00,VWS V14.01,2013-03-03 00:51:00,
2013-03-02 19:56:00,20.9,15.1,30.14,NNW,341,8.0,11.0,78,0.00,,---,0.00,VWS V14.01,2013-03-03 00:56:00,
2013-03-02 20:00:00,20.9,15.1,30.15,North,355,10.0,12.0,78,0.00,,---,0.00,VWS V14.01,2013-03-03 01:00:00,
2013-03-02 20:01:00,20.9,15.1,30.14,North,352,9.0,13.0,78,0.00,,---,0.00,VWS V14.01,2013-03-03 01:01:00,
2013-03-02 20:06:00,20.7,14.9,30.14,North,351,7.0,13.0,78,0.00,,---,0.00,VWS V14.01,2013-03-03 01:06:00,
2013-03-02 20:10:00,20.7,15.2,30.14,North,359,7.0,13.0,79,0.00,,---,0.00,VWS V14.01,2013-03-03 01:10:00,
2013-03-02 20:11:00,20.7,14.9,30.14,NNE,17,6.0,9.0,78,0.00,,---,0.00,VWS V14.01,2013-03-03 01:11:00,
2013-03-02 20:16:00,20.6,14.8,30.14,NNW,344,4.0,11.0,78,0.00,,---,0.00,VWS V14.01,2013-03-03 01:16:00,
2013-03-02 20:20:00,20.6,14.8,30.14,North,355,7.0,11.0,78,0.00,,---,0.00,VWS V14.01,2013-03-03 01:20:00,
2013-03-02 20:21:00,20.6,14.8,30.14,North,357,8.0,11.0,78,0.00,,---,0.00,VWS V14.01,2013-03-03 01:21:00,
2013-03-02 20:26:00,20.6,14.8,30.14,NNE,18,4.0,11.0,78,0.00,,---,0.00,VWS V14.01,2013-03-03 01:26:00,
2013-03-02 20:30:00,20.6,14.8,30.14,North,0,4.0,11.0,78,0.00,,---,0.00,VWS V14.01,2013-03-03 01:30:00,
2013-03-02 20:31:00,20.4,14.6,30.14,NNW,342,6.0,10.0,78,0.00,,---,0.00,VWS V14.01,2013-03-03 01:31:00,
2013-03-02 20:36:00,20.4,14.6,30.14,NNW,347,6.0,11.0,78,0.00,,---,0.00,VWS V14.01,2013-03-03 01:36:00,
2013-03-02 20:40:00,20.2,14.4,30.14,North,6,6.0,12.0,78,0.00,,---,0.00,VWS V14.01,2013-03-03 01:40:00,
2013-03-02 20:41:00,20.2,14.4,30.14,North,2,8.0,11.0,78,0.00,,---,0.00,VWS V14.01,2013-03-03 01:41:00,
2013-03-02 20:46:00,20.0,14.0,30.14,North,5,7.0,12.0,77,0.00,,---,0.00,VWS V14.01,2013-03-03 01:46:00,
2013-03-02 20:50:00,20.0,14.0,30.14,NNE,12,7.0,12.0,77,0.00,,---,0.00,VWS V14.01,2013-03-03 01:50:00,
2013-03-02 20:51:00,20.0,13.7,30.14,North,3,10.0,14.0,76,0.00,,---,0.00,VWS V14.01,2013-03-03 01:51:00,
2013-03-02 20:56:00,20.0,13.7,30.14,North,4,8.0,14.0,76,0.00,,---,0.00,VWS V14.01,2013-03-03 01:56:00,
2013-03-02 21:00:00,19.9,13.6,30.14,North,4,7.0,14.0,76,0.00,,---,0.00,VWS V14.01,2013-03-03 02:00:00,
2013-03-02 21:01:00,19.9,13.6,30.14,North,5,11.0,14.0,76,0.00,,---,0.00,VWS V14.01,2013-03-03 02:01:00,
2013-03-02 21:06:00,19.7,13.1,30.14,North,356,13.0,14.0,75,0.00,,---,0.00,VWS V14.01,2013-03-03 02:06:00,
2013-03-02 21:10:00,19.7,13.1,30.14,NNW,348,6.0,14.0,75,0.00,,---,0.00,VWS V14.01,2013-03-03 02:10:00,
2013-03-02 21:11:00,19.7,13.1,30.14,North,9,8.0,8.0,75,0.00,,---,0.00,VWS V14.01,2013-03-03 02:11:00,
2013-03-02 21:16:00,19.6,13.0,30.14,North,11,9.0,11.0,75,0.00,,---,0.00,VWS V14.01,2013-03-03 02:16:00,
2013-03-02 21:20:00,19.5,12.9,30.14,North,10,4.0,11.0,75,0.00,,---,0.00,VWS V14.01,2013-03-03 02:20:00,
2013-03-02 21:21:00,19.5,12.9,30.14,North,359,8.0,8.0,75,0.00,,---,0.00,VWS V14.01,2013-03-03 02:21:00,
2013-03-02 21:26:00,19.6,12.7,30.14,North,2,8.0,12.0,74,0.00,,---,0.00,VWS V14.01,2013-03-03 02:26:00,
2013-03-02 21:30:00,19.6,12.7,30.14,North,355,8.0,12.0,74,0.00,,---,0.00,VWS V14.01,2013-03-03 02:30:00,
2013-03-02 21:31:00,19.6,12.7,30.14,NNE,12,8.0,11.0,74,0.00,,---,0.00,VWS V14.01,2013-03-03 02:31:00,
2013-03-02 21:36:00,19.4,12.5,30.14,North,0,9.0,14.0,74,0.00,,---,0.00,VWS V14.01,2013-03-03 02:36:00,
2013-03-02 21:40:00,19.4,12.8,30.14,North,0,5.0,14.0,75,0.00,,---,0.00,VWS V14.01,2013-03-03 02:40:00,
2013-03-02 21:41:00,19.2,12.3,30.14,North,354,8.0,12.0,74,0.00,,---,0.00,VWS V14.01,2013-03-03 02:41:00,
2013-03-02 21:46:00,19.4,12.5,30.14,North,11,6.0,12.0,74,0.00,,---,0.00,VWS V14.01,2013-03-03 02:46:00,
2013-03-02 21:50:00,19.4,12.5,30.14,North,353,5.0,12.0,74,0.00,,---,0.00,VWS V14.01,2013-03-03 02:50:00,
2013-03-02 21:51:00,19.4,12.2,30.14,North,7,2.0,6.0,73,0.00,,---,0.00,VWS V14.01,2013-03-03 02:51:00,
2013-03-02 21:56:00,19.2,12.3,30.13,North,0,3.0,6.0,74,0.00,,---,0.00,VWS V14.01,2013-03-03 02:56:00,
2013-03-02 22:00:00,19.2,12.3,30.13,North,0,0.0,6.0,74,0.00,,---,0.00,VWS V14.01,2013-03-03 03:00:00,
2013-03-02 22:01:00,19.1,12.2,30.13,North,0,1.0,2.0,74,0.00,,---,0.00,VWS V14.01,2013-03-03 03:01:00,
2013-03-02 22:06:00,18.8,11.9,30.13,North,0,2.0,4.0,74,0.00,,---,0.00,VWS V14.01,2013-03-03 03:06:00,
2013-03-02 22:10:00,18.7,11.8,30.14,North,0,2.0,4.0,74,0.00,,---,0.00,VWS V14.01,2013-03-03 03:10:00,
2013-03-02 22:11:00,18.6,11.7,30.14,North,0,2.0,4.0,74,0.00,,---,0.00,VWS V14.01,2013-03-03 03:11:00,
2013-03-02 22:16:00,18.3,11.4,30.13,North,0,3.0,4.0,74,0.00,,---,0.00,VWS V14.01,2013-03-03 03:16:00,
2013-03-02 22:20:00,18.1,11.5,30.13,North,0,1.0,4.0,75,0.00,,---,0.00,VWS V14.01,2013-03-03 03:20:00,
2013-03-02 22:21:00,18.0,11.4,30.13,North,0,0.0,1.0,75,0.00,,---,0.00,VWS V14.01,2013-03-03 03:21:00,
2013-03-02 22:26:00,17.7,11.1,30.13,North,0,1.0,3.0,75,0.00,,---,0.00,VWS V14.01,2013-03-03 03:26:00,
2013-03-02 22:30:00,17.3,10.8,30.13,North,0,1.0,3.0,75,0.00,,---,0.00,VWS V14.01,2013-03-03 03:30:00,
2013-03-02 22:31:00,17.2,10.9,30.13,North,0,0.0,3.0,76,0.00,,---,0.00,VWS V14.01,2013-03-03 03:31:00,
2013-03-02 22:36:00,16.9,10.7,30.13,North,0,2.0,3.0,76,0.00,,---,0.00,VWS V14.01,2013-03-03 03:36:00,
2013-03-02 22:40:00,16.7,10.5,30.13,North,0,1.0,3.0,76,0.00,,---,0.00,VWS V14.01,2013-03-03 03:40:00,
2013-03-02 22:41:00,16.6,10.4,30.13,North,0,0.0,3.0,76,0.00,,---,0.00,VWS V14.01,2013-03-03 03:41:00,
2013-03-02 22:46:00,16.2,10.3,30.12,North,0,0.0,3.0,77,0.00,,---,0.00,VWS V14.01,2013-03-03 03:46:00,
2013-03-02 22:50:00,16.1,10.2,30.13,North,0,0.0,3.0,77,0.00,,---,0.00,VWS V14.01,2013-03-03 03:50:00,
2013-03-02 22:51:00,16.1,10.5,30.12,North,0,0.0,0.0,78,0.00,,---,0.00,VWS V14.01,2013-03-03 03:51:00,
2013-03-02 22:56:00,15.8,9.9,30.12,North,0,0.0,1.0,77,0.00,,---,0.00,VWS V14.01,2013-03-03 03:56:00,
2013-03-02 23:00:00,15.6,10.0,30.12,North,0,0.0,1.0,78,0.00,,---,0.00,VWS V14.01,2013-03-03 04:00:00,
2013-03-02 23:02:00,15.4,9.8,30.12,North,0,0.0,0.0,78,0.00,,---,0.00,VWS V14.01,2013-03-03 04:02:00,
2013-03-02 23:07:00,15.1,9.8,30.12,North,0,0.0,0.0,79,0.00,,---,0.00,VWS V14.01,2013-03-03 04:07:00,
2013-03-02 23:10:00,14.9,9.6,30.12,North,0,0.0,0.0,79,0.00,,---,0.00,VWS V14.01,2013-03-03 04:10:00,
2013-03-02 23:12:00,14.8,9.5,30.11,North,0,0.0,0.0,79,0.00,,---,0.00,VWS V14.01,2013-03-03 04:12:00,
2013-03-02 23:17:00,14.4,9.4,30.11,North,0,0.0,0.0,80,0.00,,---,0.00,VWS V14.01,2013-03-03 04:17:00,
2013-03-02 23:20:00,14.3,9.3,30.11,North,0,0.0,0.0,80,0.00,,---,0.00,VWS V14.01,2013-03-03 04:20:00,
2013-03-02 23:22:00,14.3,9.3,30.11,North,0,0.0,0.0,80,0.00,,---,0.00,VWS V14.01,2013-03-03 04:22:00,
2013-03-02 23:27:00,14.1,9.4,30.11,North,0,0.0,0.0,81,0.00,,---,0.00,VWS V14.01,2013-03-03 04:27:00,
2013-03-02 23:30:00,13.9,9.2,30.11,North,0,0.0,0.0,81,0.00,,---,0.00,VWS V14.01,2013-03-03 04:30:00,
2013-03-02 23:32:00,14.0,9.5,30.11,North,0,1.0,2.0,82,0.00,,---,0.00,VWS V14.01,2013-03-03 04:32:00,
2013-03-02 23:37:00,13.6,8.9,30.10,North,0,1.0,2.0,81,0.00,,---,0.00,VWS V14.01,2013-03-03 04:37:00,
2013-03-02 23:40:00,13.5,8.8,30.10,North,0,0.0,3.0,81,0.00,,---,0.00,VWS V14.01,2013-03-03 04:40:00,
2013-03-02 23:42:00,13.5,8.8,30.10,North,0,0.0,0.0,81,0.00,,---,0.00,VWS V14.01,2013-03-03 04:42:00,
2013-03-02 23:47:00,13.3,8.8,30.10,North,0,0.0,2.0,82,0.00,,---,0.00,VWS V14.01,2013-03-03 04:47:00,
2013-03-02 23:50:00,13.3,8.8,30.10,North,0,1.0,2.0,82,0.00,,---,0.00,VWS V14.01,2013-03-03 04:50:00,
2013-03-02 23:52:00,13.3,9.1,30.10,North,0,0.0,3.0,83,0.00,,---,0.00,VWS V14.01,2013-03-03 04:52:00,
2013-03-02 23:57:00,13.3,9.1,30.10,North,0,1.0,3.0,83,0.00,,---,0.00,VWS V14.01,2013-03-03 04:57:00,